TIANMU-1 04

Last updated on Thu Jul 03 2025 00:02:22 GMT+0000 (Coordinated Universal Time)

1 55974U 23039B 25183.57929965 .00008386 00000+0 24239-3 0 9995 2 55974 97.4953 341.8075 0003118 268.9164 91.1722 15.35896355126984
UTC large
Height (km)
Speed (km/s)
/
Latitude / Longitude
Inclination (degrees)
Orbital Period (minutes)
Azimuth
Elevation
Range (km)
Doppler Factor

Next 0 passes for location: London (51.5072 / 0.1276)

Sorry there are no passes over London.